Location: ????????
(55.0097°N, 38.5678°E)
Time: 00:05:35
(UTC+00:00)

NOSS 3-1 (C) - Pass Details

Date: 16 December 2025
Orbit: 618 x 1583 km, 63.4° (Epoch: 10 January)

Event Time Altitude Azimuth Distance (km) Brightness Sun altitude
Exits shadow 03:02:06 11° 227° (SW) 3,325 5.9 -21.6°
Drops below altitude 10° 03:02:53 10° 222° (SW) 3,470 6.1 -21.5°
Sets 03:07:39 0° 202° (SSW) 4,597 6.9 -20.8°
